STARLINK-32289, 60737

Orbit data source: Space-Track

STARLINK-32289, 60737 is a payload satellite owned by SpaceX/Seattle (US) in LEO that was launched on Wed, 28 Aug 2024 UTC via an FALCON 9 launch vehicle from the Air Force Eastern Test Range (AFETR). Payload-class satellites include a variety of spacecraft equipped with specific instruments for various scientific and technological missions. These include communications satellites like Starlink; space stations such as the ISS; scientific satellites like the Hubble; Earth observation satellites from companies like Planet Labs, Umbra, and HawkEye 360; GPS; miniature CubeSats for education and research; and military/defense satellites.

Loading next visibility...
Identifier
60737, 2024-152T
Orbit
LEO
Last TLE update
15 hours ago
Origin
Manufacturer
SpaceX/Seattle
Mission
Operational Commercial Communications
Bus & Motor
STARLINK V2M, Unknown motor
Mass
730 kg wet, ~700 kg dry
Launch date (UTC)
2024-08-28 (8 months ago)
Launch vehicle
FALCON 9
Launch site
Air Force Eastern Test Range (AFETR)
Object type
Payload
Rocket body
Debris
Shape & HBR
Box + 2 Pan, 29 m
Radar Cross Section
36.964 m², Large (>1 m²)

Expand to show TLE details & history

TLE from 15 hours ago
0 STARLINK-32289
1 60737U 24152T   25128.64550005  .00003282  00000-0  12296-3 0  9998
2 60737  53.1603 245.5851 0001269  95.9880 264.1265 15.30179817 40147
Epoch: 2025-05-08T15:29Z
Definitive object data (Epoch: 2025-05-08T15:29:31.204Z)
Latitude
-0.00005°
Longitude
146.49203°
Altitude
476.264 km
Speed
7.629 km/s
True Right ascension
16h 22m 20s
True Declination
0° 00' 00"
Sunlit
Object was in full shadow at TLE epoch
Visualization TLE readout
Latitude
4.21201°
Longitude
-39.53155°
Altitude
475.514 km
Speed
7.63 km/s
Apparent Right ascension
03h 21m 40s
Apparent Declination
-17° 12' 48"
Sunlit
Object is in daylight
Visualization observer readout
Local Sidereal Time
14:30:25
Azimuth
330.257° NNW
Elevation
-64.727°
Doppler factor
1
Orbital elements
Apogee altitude
476.401 km
Perigee altitude
474.662 km
Semi-major axis
6,853.669 km
Eccentricity
0.0001269
Inclination
53.1603°
RAAN
245.5851°
Arg. of periapsis
95.988°
True anomaly
264.11203°
Mean anomaly
264.1265°
Eccentric anomaly
264.11927°
Mean motion
3.82524 °/min
BSTAR
0.00012296
Orbital period
94.11 mins
Loading maneuver chart data...
Loading SW <> Apogee altitude chart data...
Loading historical data...
Loading historical data...
Loading historical data...
Loading historical data...
Loading historical data...
Loading historical data...
Loading historical data...

STARLINK-32289 Visibility forecast

Observer location: undefined°, undefined°

Span
Click to sort rows by Start time (UTC) header in descending order
Start Az.
Max El. time (UTC)
Max El. Az.
Max El.
End time (UTC)
End Az.
7 mins2025-05-09 10:28:36.271Z228.321° WSW2025-05-09 10:31:36.271Z225.242° WSW43.051°2025-05-09 10:35:36.271Z50.391° ENE
4 mins2025-05-09 15:26:36.271Z343.505° N2025-05-09 15:28:36.271Z19.338° NNE15.985°2025-05-09 15:30:36.271Z55.714° ENE
6 mins2025-05-09 17:04:36.271Z315.742° NNW2025-05-09 17:06:36.271Z342.746° N41.367°2025-05-09 17:10:36.271Z124.288° SE
|